TimeMST,TemperatureF,Dew PointF,Humidity,Sea Level PressureIn,VisibilityMPH,Wind Direction,Wind SpeedMPH,Gust SpeedMPH,PrecipitationIn,Events,Conditions,WindDirDegrees,DateUTC
12:53 AM,18.0,12.9,81,30.57,10.0,WNW,3.5,-,N/A,,Overcast,290,2014-01-23 07:53:00
1:53 AM,19.0,12.9,77,30.57,10.0,NW,6.9,-,N/A,,Overcast,310,2014-01-23 08:53:00
2:45 AM,18.0,14.0,84,30.43,10.0,NNW,9.2,-,N/A,,Overcast,330,2014-01-23 09:45:00
2:53 AM,18.0,14.0,84,30.58,10.0,NNW,8.1,-,N/A,,Overcast,330,2014-01-23 09:53:00
3:10 AM,18.0,14.0,84,30.43,10.0,NNW,9.2,-,N/A,,Overcast,330,2014-01-23 10:10:00
3:53 AM,18.0,12.0,78,30.59,10.0,West,9.2,-,N/A,,Overcast,280,2014-01-23 10:53:00
4:53 AM,18.0,12.0,78,30.60,10.0,West,4.6,-,N/A,,Overcast,280,2014-01-23 11:53:00
5:15 AM,18.0,12.0,78,30.44,10.0,NW,4.6,-,N/A,,Overcast,310,2014-01-23 12:15:00
5:53 AM,18.0,12.0,78,30.61,10.0,SSW,8.1,-,N/A,,Overcast,210,2014-01-23 12:53:00
6:33 AM,15.1,10.9,84,30.44,10.0,SSW,8.1,-,N/A,,Scattered Clouds,200,2014-01-23 13:33:00
6:53 AM,14.0,10.0,84,30.62,10.0,SSW,6.9,-,N/A,,Clear,200,2014-01-23 13:53:00
7:53 AM,14.0,10.0,84,30.62,10.0,SSW,6.9,-,N/A,,Clear,210,2014-01-23 14:53:00
8:53 AM,15.1,9.0,77,30.61,10.0,SSE,4.6,-,N/A,,Clear,150,2014-01-23 15:53:00
9:53 AM,19.9,12.0,71,30.59,10.0,South,4.6,-,N/A,,Clear,180,2014-01-23 16:53:00
10:53 AM,25.0,12.0,58,30.56,10.0,SE,4.6,-,N/A,,Clear,140,2014-01-23 17:53:00
11:53 AM,30.9,10.9,43,30.51,10.0,Calm,Calm,-,N/A,,Clear,0,2014-01-23 18:53:00
12:53 PM,35.1,9.0,34,30.45,10.0,Calm,Calm,-,N/A,,Clear,0,2014-01-23 19:53:00
1:53 PM,37.0,-0.0,21,30.42,10.0,Calm,Calm,-,N/A,,Clear,0,2014-01-23 20:53:00
2:53 PM,37.9,-4.0,17,30.39,10.0,Calm,Calm,-,N/A,,Clear,0,2014-01-23 21:53:00
3:53 PM,37.9,-6.0,15,30.37,10.0,Calm,Calm,-,N/A,,Clear,0,2014-01-23 22:53:00
4:53 PM,33.1,12.0,42,30.36,10.0,Calm,Calm,-,N/A,,Clear,0,2014-01-23 23:53:00
5:53 PM,25.0,16.0,69,30.38,10.0,WSW,3.5,-,N/A,,Clear,240,2014-01-24 00:53:00
6:53 PM,24.1,14.0,65,30.35,10.0,South,4.6,-,N/A,,Clear,170,2014-01-24 01:53:00
7:53 PM,23.0,15.1,72,30.35,10.0,Calm,Calm,-,N/A,,Clear,0,2014-01-24 02:53:00
8:53 PM,23.0,15.1,72,30.35,10.0,NNE,3.5,-,N/A,,Clear,20,2014-01-24 03:53:00
9:53 PM,27.0,14.0,58,30.31,10.0,Variable,3.5,-,N/A,,Clear,0,2014-01-24 04:53:00
10:53 PM,30.0,14.0,51,30.30,10.0,NW,5.8,-,N/A,,Clear,310,2014-01-24 05:53:00
11:53 PM,26.1,16.0,66,30.31,10.0,Calm,Calm,-,N/A,,Scattered Clouds,0,2014-01-24 06:53:00